Weather History for Petersburg, VA

Change the Weather History Date:

Sunday, September 1, 2013

  Actual Average (KRIC) Record (KRIC)
Temperature  
Mean Temperature 84 °F 75 °F  
Max Temperature 96 °F 86 °F 102 °F (1953)
Min Temperature 73 °F 65 °F 49 °F (1946)
Degree Days  
Heating Degree Days 0 0  
Month to date heating degree days 0  
Since 1 July heating degree days 1  
Cooling Degree Days 20 10  
Month to date cooling degree days 10  
Year to date cooling degree days 1317  
Growing Degree Days 34 (Base 50)    
Moisture  
Dew Point 74 °F    
Average Humidity 79    
Maximum Humidity 100    
Minimum Humidity 50    
Precipitation  
Precipitation 0.00 in 0.14 in 3.62 in (2006)
Month to date precipitation 0.14  
Year to date precipitation 30.13  
Snow  
Snow 0.00 in 0.00 in 0.00 in (2002)
Month to date snowfall 0.0  
Since 1 July snowfall 0.0  
Snow Depth -    
Sea Level Pressure  
Sea Level Pressure 29.84 in    
Wind  
Wind Speed 4 mph (South)    
Max Wind Speed 13 mph    
Max Gust Speed 20 mph    
Visibility 9 miles    
Events Rain , Thunderstorm    
T = Trace of Precipitation, MM = Missing Value Source: NWS Daily Summary

Daily Weather History Graph

Daily Weather History Graph

Search for Another Location

Airport:

Trip Planner

Search our weather history database for the weather conditions in past years. The results will help you decide how hot, cold, wet, or windy it might be!

Date:

Astronomy

Sep. 01, 2013 Rise Set
Actual Time 6:40 AM EDT 7:38 PM EDT
Civil Twilight 6:14 AM EDT 8:04 PM EDT
Nautical Twilight 5:42 AM EDT 8:36 PM EDT
Astronomical Twilight 5:09 AM EDT 9:09 PM EDT
Moon 3:04 AM EDT 5:11 PM EDT
Length of Visible Light 13h 50m
Length of Day
12h 57m
Waning Crescent, 14% of the Moon is Illuminated
Sep 1
Waning Crescent
Sep 5
New
Sep 12
First Quarter
Sep 19
Full
Sep 26
Last Quarter

Hourly Weather History & Observations

Time (EDT) Temp. Heat Index Dew Point Humidity Pressure Visibility Wind Dir Wind Speed Gust Speed Precip Events Conditions
12:15 AM 80.6 °F 85.4 °F 73.4 °F 79% 29.88 in 10.0 mi SSW 3.5 mph - N/A   Clear
12:35 AM 78.8 °F - 73.4 °F 83% 29.88 in 10.0 mi SSE 4.6 mph - N/A   Clear
12:55 AM 78.8 °F - 73.4 °F 83% 29.88 in 10.0 mi South 3.5 mph - N/A   Clear
1:15 AM 78.8 °F - 73.4 °F 83% 29.88 in 10.0 mi SSE 3.5 mph - N/A   Clear
1:35 AM 77.0 °F - 73.4 °F 89% 29.88 in 10.0 mi Calm Calm - N/A   Clear
1:55 AM 75.2 °F - 73.4 °F 94% 29.88 in 10.0 mi South 3.5 mph - N/A   Clear
2:15 AM 75.2 °F - 73.4 °F 94% 29.87 in 10.0 mi South 3.5 mph - N/A   Clear
2:35 AM 75.2 °F - 71.6 °F 89% 29.86 in 10.0 mi South 3.5 mph - N/A   Clear
2:55 AM 75.2 °F - 71.6 °F 89% 29.86 in 10.0 mi South 3.5 mph - N/A   Clear
3:15 AM 75.2 °F - 71.6 °F 89% 29.85 in 10.0 mi SSE 4.6 mph - N/A   Clear
3:35 AM 75.2 °F - 71.6 °F 89% 29.85 in 10.0 mi South 3.5 mph - N/A Rain Light Rain
3:55 AM 75.2 °F - 71.6 °F 89% 29.85 in 10.0 mi South 3.5 mph - N/A Rain Light Rain
4:15 AM 73.4 °F - 71.6 °F 94% 29.85 in 10.0 mi Calm Calm - N/A Rain Light Rain
4:35 AM 73.4 °F - 71.6 °F 94% 29.85 in 7.0 mi South 3.5 mph - N/A Rain Light Rain
4:55 AM 73.4 °F - 71.6 °F 94% 29.84 in 7.0 mi Calm Calm - N/A Rain Light Rain
5:15 AM 73.4 °F - 71.6 °F 94% 29.85 in 7.0 mi Calm Calm - N/A Rain Light Rain
5:35 AM 73.4 °F - 71.6 °F 94% 29.85 in 7.0 mi Calm Calm - N/A Rain Light Rain
5:55 AM 73.4 °F - 71.6 °F 94% 29.85 in 7.0 mi South 3.5 mph - N/A Rain Light Rain
6:15 AM 73.4 °F - 71.6 °F 94% 29.86 in 10.0 mi South 3.5 mph - N/A Rain Light Rain
6:35 AM 73.4 °F - 71.6 °F 94% 29.86 in 10.0 mi Calm Calm - N/A Rain Light Rain
6:55 AM 73.4 °F - 71.6 °F 94% 29.86 in 7.0 mi Calm Calm - N/A Rain Light Rain
7:15 AM 73.4 °F - 71.6 °F 94% 29.87 in 7.0 mi Calm Calm - N/A Rain Light Rain
7:35 AM 73.4 °F - 71.6 °F 94% 29.87 in 5.0 mi Calm Calm - N/A Rain Light Rain
7:55 AM 75.2 °F - 73.4 °F 94% 29.87 in 7.0 mi Calm Calm - N/A Rain Light Rain
8:15 AM 77.0 °F - 73.4 °F 89% 29.87 in 10.0 mi South 3.5 mph - N/A Rain Light Rain
8:35 AM 80.6 °F 86.2 °F 75.2 °F 84% 29.87 in 10.0 mi SSW 3.5 mph - N/A Rain Light Rain
8:55 AM 80.6 °F 86.2 °F 75.2 °F 84% 29.87 in 10.0 mi SSW 6.9 mph - N/A Rain Light Rain
9:15 AM 82.4 °F 89.5 °F 75.2 °F 79% 29.87 in 10.0 mi SSW 6.9 mph - N/A Rain Light Rain
9:35 AM 84.2 °F 92.3 °F 75.2 °F 74% 29.87 in 10.0 mi SSW 5.8 mph - N/A Rain Light Rain
9:55 AM 86.0 °F 96.9 °F 77.0 °F 74% 29.87 in 7.0 mi SW 5.8 mph - N/A   Clear
10:15 AM 87.8 °F 97.6 °F 75.2 °F 66% 29.88 in 10.0 mi SW 9.2 mph - N/A   Clear
10:35 AM 87.8 °F 99.7 °F 77.0 °F 70% 29.88 in 10.0 mi SSW 5.8 mph - N/A   Clear
10:55 AM 89.6 °F 102.2 °F 77.0 °F 66% 29.87 in 10.0 mi SW 5.8 mph - N/A   Clear
11:15 AM 89.6 °F 99.8 °F 75.2 °F 62% 29.87 in 7.0 mi SW 9.2 mph - N/A   Clear
11:35 AM 91.4 °F 105.1 °F 77.0 °F 63% 29.87 in 10.0 mi SW 9.2 mph - N/A   Clear
11:55 AM 91.4 °F 105.1 °F 77.0 °F 63% 29.86 in 10.0 mi SSW 9.2 mph - N/A   Clear
12:15 PM 91.4 °F 105.1 °F 77.0 °F 63% 29.86 in 10.0 mi South 6.9 mph - N/A   Clear
12:35 PM 91.4 °F 105.1 °F 77.0 °F 63% 29.85 in 10.0 mi SSW 3.5 mph - N/A   Clear
12:55 PM 91.4 °F 105.1 °F 77.0 °F 63% 29.84 in 10.0 mi South 5.8 mph - N/A   Clear
1:15 PM 93.2 °F 107.2 °F 77.0 °F 59% 29.84 in 10.0 mi South 6.9 mph - N/A   Clear
1:35 PM 93.2 °F 107.2 °F 77.0 °F 59% 29.83 in 10.0 mi SSW 5.8 mph - N/A   Clear
1:55 PM 93.2 °F 107.2 °F 77.0 °F 59% 29.83 in 10.0 mi SSW 8.1 mph - N/A   Clear
2:15 PM 93.2 °F 107.2 °F 77.0 °F 59% 29.82 in 10.0 mi SSW 8.1 mph - N/A   Scattered Clouds
2:35 PM 95.0 °F 109.7 °F 77.0 °F 56% 29.81 in 10.0 mi South 6.9 mph - N/A   Scattered Clouds
2:55 PM 95.0 °F 109.7 °F 77.0 °F 56% 29.81 in 10.0 mi SSW 6.9 mph - N/A   Scattered Clouds
3:15 PM 96.8 °F 109.6 °F 75.2 °F 50% 29.80 in 10.0 mi WSW 9.2 mph - N/A   Clear
3:35 PM 96.8 °F 109.6 °F 75.2 °F 50% 29.79 in 10.0 mi SSW 6.9 mph - N/A   Clear
3:55 PM 96.8 °F 109.6 °F 75.2 °F 50% 29.79 in 10.0 mi SW 6.9 mph - N/A   Clear
4:15 PM 95.0 °F 109.7 °F 77.0 °F 56% 29.79 in 10.0 mi SW 4.6 mph - N/A   Clear
4:35 PM 95.0 °F 109.7 °F 77.0 °F 56% 29.78 in 10.0 mi SSW 5.8 mph - N/A   Clear
4:55 PM 93.2 °F 107.2 °F 77.0 °F 59% 29.78 in 10.0 mi South 4.6 mph - N/A   Clear
5:15 PM 93.2 °F 107.2 °F 77.0 °F 59% 29.77 in 7.0 mi SSW 4.6 mph - N/A   Clear
5:35 PM 89.6 °F 99.8 °F 75.2 °F 62% 29.78 in 10.0 mi South 12.7 mph 19.6 mph N/A   Scattered Clouds
5:55 PM 86.0 °F 95.1 °F 75.2 °F 70% 29.78 in 10.0 mi SSE 6.9 mph - N/A   Scattered Clouds
6:15 PM 84.2 °F 92.3 °F 75.2 °F 74% 29.78 in 10.0 mi SE 4.6 mph - N/A Rain Light Rain
6:35 PM 82.4 °F 89.5 °F 75.2 °F 79% 29.80 in 10.0 mi SSE 3.5 mph - N/A Rain Light Rain
6:55 PM 82.4 °F 89.5 °F 75.2 °F 79% 29.80 in 10.0 mi SSE 4.6 mph - N/A Rain Light Rain
7:15 PM 82.4 °F 89.5 °F 75.2 °F 79% 29.81 in 10.0 mi Calm Calm - N/A Rain , Thunderstorm Light Thunderstorms and Rain
7:35 PM 80.6 °F 86.2 °F 75.2 °F 84% 29.85 in 5.0 mi SSW 4.6 mph - N/A Rain , Thunderstorm Light Thunderstorms and Rain
7:55 PM 78.8 °F - 75.2 °F 89% 29.87 in 3.0 mi WNW 9.2 mph - N/A Rain , Thunderstorm Rain
8:15 PM 77.0 °F - 75.2 °F 94% 29.87 in 2.0 mi North 3.5 mph - N/A Rain , Thunderstorm Heavy Thunderstorms and Rain
8:35 PM 77.0 °F - 75.2 °F 94% 29.86 in 2.0 mi South 4.6 mph - N/A Rain , Thunderstorm Heavy Thunderstorms and Rain
8:55 PM 77.0 °F - 75.2 °F 94% 29.85 in 2.5 mi South 4.6 mph - N/A Rain , Thunderstorm Light Thunderstorms and Rain
9:15 PM 75.2 °F - 73.4 °F 94% 29.86 in 7.0 mi South 5.8 mph - N/A Rain , Thunderstorm Light Thunderstorms and Rain
9:35 PM 75.2 °F - 73.4 °F 94% 29.86 in 7.0 mi South 6.9 mph - N/A Rain Light Rain
9:55 PM 75.2 °F - 73.4 °F 94% 29.84 in 5.0 mi South 4.6 mph - N/A Rain Rain
10:15 PM 75.2 °F - 73.4 °F 94% 29.85 in 5.0 mi SSW 5.8 mph - N/A Rain Rain
10:35 PM 75.2 °F - 73.4 °F 94% 29.84 in 5.0 mi South 5.8 mph - N/A Rain Rain
10:55 PM 75.2 °F - 73.4 °F 94% 29.83 in 10.0 mi Calm Calm - N/A Rain Light Rain
11:15 PM 75.2 °F - 73.4 °F 94% 29.83 in 10.0 mi South 3.5 mph - N/A Rain Light Rain
11:35 PM 75.2 °F - 75.2 °F 100% 29.83 in 7.0 mi South 4.6 mph - N/A Rain Light Rain
11:55 PM 77.0 °F - 75.2 °F 94% 29.83 in 7.0 mi South 4.6 mph - N/A Rain Light Rain